Location: *
(10.5081°N, 66.9194°W)
Time: 04:25:24
(UTC+00:00)

STARLINK-1145 - Pass Details

Date: 30 March 2020
Orbit: 548 x 551 km, 53.0° (Epoch: 25 May)

Event Time Altitude Azimuth Distance (km) Brightness Sun altitude
Rises 22:40:59 0° 317° (NW) 2,700 8.0 -1.5°
Reaches altitude 10° 22:43:15 10° 312° (NW) 1,808 7.2 -2.0°
Maximum altitude 22:47:15 51° 236° (SW) 686 4.6 -3.0°
Drops below altitude 10° 22:51:14 10° 160° (SSE) 1,808 6.0 -4.0°
Enters shadow 22:56:42 -10° 151° (SSE) 3,968 7.7 -5.3°
